Hourly Data Report for May 11, 2021

STE-ANNE-DE-BELLEVUE 1
QUEBEC
Current Station Operator: ECCC - MSC

45°25'38.000" N
73°55'45.000" W
39.00 m
702FHL8
71377
WVQ

Download Data

Hourly Data (May 2021)
Hourly Data Report for May 11, 2021
TIME
LST
Temp Definition
°C
Dew Point Definition
°C
Rel Hum Definition
%
Precip. Amount Definition
mm

Wind Dir Definition
10's deg

Wind Spd Definition
km/h
Visibility Definition
km
Stn Press Definition
kPa
Hmdx Definition


Wind Chill Definition


Weather Definition


00:00 9.0 0.4 55 0.0 24 10   100.75     LegendNANA
01:00 8.8 2.6 65 0.0 24 13   100.74     LegendNANA
02:00 8.0 4.0 76 0.0 25 13   100.70     LegendNANA
03:00 8.1 4.8 80 0.0 25 17   100.67     LegendNANA
04:00 7.4 4.8 83 0.0 24 18   100.70     LegendNANA
05:00 7.2 4.6 83 0.0 24 22   100.75     LegendNANA
06:00 6.7 4.1 83 0.0 24 19   100.78     LegendNANA
07:00 7.9 4.0 76 0.0 25 19   100.80     LegendNANA
08:00 8.6 3.4 70 0.0 25 21   100.78     LegendNANA
09:00 9.7 2.4 60 0.0 25 24   100.78     LegendNANA
10:00 10.6 2.0 55 0.0 25 26   100.79     LegendNANA
11:00 10.3 3.6 63 0.0 25 24   100.80     LegendNANA
12:00 10.4 4.1 65 0.0 25 27   100.80     LegendNANA
13:00 12.1 3.1 54 0.0 24 21   100.75     LegendNANA
14:00 12.2 3.7 56 0.0 24 23   100.72     LegendNANA
15:00 10.9 3.1 58 0.0 24 24   100.73     LegendNANA
16:00 10.2 2.6 59 0.0 26 28   100.77     LegendNANA
17:00 10.0 2.3 58 0.0 27 24   100.77     LegendNANA
18:00 9.7 2.4 61 0.0 28 21   100.81     LegendNANA
19:00 8.3 2.4 66 0.0 27 19   100.86     LegendNANA
20:00 7.0 3.6 79 0.0 26 20   100.92     LegendNANA
21:00 6.0 4.2 88 0.0 27 18   100.97     LegendNANA
22:00 5.9 4.4 90 0.0 26 16   100.96     LegendNANA
23:00 6.1 4.8 91 0.0 26 15   100.98     LegendNANA

Notes on Data Quality.

Legend

  • E = Estimated
  • M = Missing
  • NA = Not Available*
  • [empty] = Indicates an unobserved value
Date modified: